Showing default

DIADEME 1, 2674

Orbit data source: Space-Track

DIADEME 1, 2674 is a payload satellite owned by CNES (FR) in LEO that was launched on Wed, 08 Feb 1967 UTC via a DIAMANT A launch vehicle from the Hamma Guira Space Track Range (HGSTR). Payload-class satellites include a variety of spacecraft equipped with specific instruments for various scientific and technological missions. These include communications satellites like Starlink; space stations such as the ISS; scientific satellites like the Hubble; Earth observation satellites from companies like Planet Labs, Umbra, and HawkEye 360; GPS; miniature CubeSats for education and research; and military/defense satellites.

Loading next visibility...
Identifier
2674, 1967-011A
Orbit
LEO
Country
Flag of FRFR
Related business
Manufacturer
CNES
Mission
Civil Geodetic
Bus & Motor
D-1, Unknown motor
Mass
23 kg wet, 23 kg dry
Launch date (UTC)
1967-02-08 (59 years ago)
Launch vehicle
DIAMANT A
Launch site
Hamma Guira Space Track Range (HGSTR)
Object type
Payload
Rocket body
Debris
Shape & HBR
Cyl + 4 Pan, 0.8 m
Radar Cross Section
0.455 m², Medium (>0.1 m² and < 1m²)

Expand to show TLE details & history
Last TLE update: 21 hours ago

TLE from 21 hours ago
0 DIADEME 1
1 02674U 67011A   25245.50457756  .00012749  00000-0  14616-2 0  9994
2 02674  39.9165  71.8507 0217441  70.3959 292.0156 14.70070564 47688
Epoch: 2025-09-02T12:06Z
TLE epoch observation values (Epoch: 2025-09-02T12:06:35.501Z)
Latitude
0.00003°
Longitude
-91.69205°
Altitude
605.819 km
Speed
7.588 km/s
True Right ascension
04h 47m 24s
True Declination
0° 00' 00"
Sunlit
Object was in daylight at epoch
Visualization orbit readout
Latitude
Unknown
Longitude
Unknown
Altitude
Unknown
Speed
Unknown
Apparent Right ascension
Unknown
Apparent Declination
Unknown
Sunlit
N/A
Visualization observer readout
Local Sidereal Time
00:49:03
Azimuth
Unknown
Elevation
Unknown
Doppler factor
Unknown
Orbital elements
Apogee altitude
816.35 km
Perigee altitude
510.134 km
Semi-major axis
7,041.379 km
Eccentricity
0.02174
Inclination
39.9165°
RAAN
71.8507°
Arg. of periapsis
70.3959°
True anomaly
289.68248°
Mean anomaly
292.0156°
Eccentric anomaly
290.85135°
Mean motion
3.6733 °/min
Orbital period
98 mins
BSTAR
0.0014616
Loading maneuver chart data...
Computing Atmospheric mass density...

Documentation

Showing up to 5 results
|